Find Starlink 32809

NORAD ID: 62849 Int'l Des: 2025-019 Owner: SPXS Country: US Constellation: starlink operational
LEOCIRCULAR

現在のビュー

3D地球を読み込み中...

About Starlink 32809

Starlink 32809 (NORAD 62849) is a starlink constellation satellite (v2 mini) launched Jan 27, 2025 by SPXS of US. It operates in LEO, CIRCULAR orbit with a mass of 730.00 kg.

Starlink 32809について

説明を読み込み中...

次回通過

Passes for default location (London). Set your location on the main map for personalized predictions.

高度履歴

Loading altitude history...

軌道要素

1 62849U 25019W 26164.99858359 .00023170 00000-0 84825-3 0 9994
2 62849 43.0046 264.7771 0005424 265.5577 94.4655 15.27593815 76983
Epoch: Jun 13, 2026 • Age: 41 hours

現在のステータス

高度 482.3 km
速度 7.63 km/s
衛星直下点 9.93°N, 109.5°E
打ち上げ日 Jan 27, 2025
運用期間 1.3 years
タイプ internet

技術仕様

分類 Payload
質量 730.00 kg
乾燥質量 700.00 kg
総質量 730.00 kg
長さ 0.30 m
直径 4.10 m
スパン 29.00 m
形状 Box + pan
製造者 SPXS
バスタイプ Starlink V2M
フェーズステータス In Orbit
所有者/国 SPXS/US

Most Searched